EW2973 Weather Reports


Display with metric or nautical units.
time (UTC)temp
F
wind
direction
speed
MPH
gust
MPH
rain 1hr
in
rain 24hr
in
rain mn
in
humidity
%
barometer
mb
20260504191515 72 201 6.0 17.0 0.00 0.00 0.00 50 1008.2
20260504190015 72 250 6.0 19.0 0.00 0.00 0.00 50 1008.0
20260504184526 71 266 5.0 16.0 0.00 0.00 0.00 52 1008.1
20260504183024 70 232 7.0 13.0 0.00 0.00 0.00 51 1008.2
20260504181516 70 173 6.0 13.0 0.00 0.00 0.00 53 1008.4
20260504180017 70 210 6.0 16.0 0.00 0.00 0.00 53 1008.4
20260504174516 70 234 6.0 13.0 0.00 0.00 0.00 52 1008.6
20260504173014 69 173 4.0 15.0 0.00 0.00 0.00 55 1008.7
20260504171516 68 166 6.0 14.0 0.00 0.00 0.00 55 1008.8
20260504081519 51 142 1.0 7.0 0.00 0.00 0.00 60 1011.5
20260504050020 51 241 2.0 7.0 0.00 0.00 0.00 61 1013.4
20260504044520 50 135 2.0 5.0 0.00 0.00 0.00 63 1013.5
20260504043030 50 205 2.0 7.0 0.00 0.00 0.00 64 1013.5
20260504041527 49 174 1.0 7.0 0.00 0.00 0.00 67 1013.6
20260504040027 48 182 0.0 2.0 0.00 0.00 0.00 71 1013.6
20260504034523 48 161 0.0 2.0 0.00 0.00 0.00 72 1013.8
20260504033022 48 156 0.0 0.0 0.00 0.00 0.00 73 1013.9
20260504031521 48 157 0.0 0.0 0.00 0.00 0.00 73 1013.9
20260504030018 48 153 0.0 2.0 0.00 0.00 0.00 70 1014.1
20260504024528 48 117 0.0 3.0 0.00 0.00 0.00 71 1014.1
20260504023027 48 187 0.0 2.0 0.00 0.00 0.00 70 1014.2
20260504021525 49 159 0.0 2.0 0.00 0.00 0.00 69 1014.3
20260504020034 49 177 0.0 2.0 0.00 0.00 0.00 68 1014.4
20260504014525 50 199 0.0 5.0 0.00 0.00 0.00 67 1014.4
20260504013025 50 165 1.0 2.0 0.00 0.00 0.00 66 1014.3
20260504011526 50 168 0.0 0.0 0.00 0.00 0.00 67 1014.2
20260504010027 50 190 0.0 0.0 0.00 0.00 0.00 66 1014.1
20260504004539 50 192 0.0 0.0 0.00 0.00 0.00 65 1014.3
20260504003025 51 184 0.0 2.0 0.00 0.00 0.00 63 1014.3
20260504001531 51 220 1.0 8.0 0.00 0.00 0.00 62 1014.6
20260504000022 52 253 6.0 20.0 0.00 0.00 0.00 57 1015.1
20260503234521 53 176 10.0 18.0 0.00 0.00 0.00 53 1015.1
20260503233025 54 269 7.0 19.0 0.00 0.00 0.00 52 1015.0
20260503231526 55 243 9.0 20.0 0.00 0.00 0.00 47 1014.9
20260503230024 57 163 5.0 18.0 0.00 0.00 0.00 40 1014.6
20260503224524 58 221 4.0 14.0 0.00 0.00 0.00 39 1014.5
20260503223024 58 255 5.0 14.0 0.00 0.00 0.00 40 1014.6
20260503221523 58 306 4.0 15.0 0.00 0.00 0.00 40 1014.6
20260503220034 59 248 7.0 21.0 0.00 0.00 0.00 37 1014.8
20260503214541 59 232 6.0 15.0 0.00 0.00 0.00 39 1015.0
20260503213033 59 236 3.0 13.0 0.00 0.00 0.00 38 1015.0
20260503211528 59 295 4.0 10.0 0.00 0.00 0.00 40 1015.1
20260503210024 59 254 5.0 15.0 0.00 0.00 0.00 37 1015.3
20260503204528 60 238 2.0 13.0 0.00 0.00 0.00 38 1015.3
20260503203024 61 252 6.0 15.0 0.00 0.00 0.00 37 1015.5
20260503201519 60 277 9.0 16.0 0.00 0.00 0.00 37 1015.5
20260503200016 59 277 6.0 15.0 0.00 0.00 0.00 39 1015.6
20260503194512 60 154 4.0 14.0 0.00 0.00 0.00 39 1015.8
20260503193026 59 263 4.0 14.0 0.00 0.00 0.00 40 1016.2